Overview Statistics Trail Chart Weather Telemetry Raw packets
 

This is the latest recevied weather packets stored in our database for station/object VA2EYZ-13. If no packets are shown the sender has not sent any weather packets the latest 10 day(s).

<< 1 2 3 4 >>
Time Temp. Humidity Pressure Rain* Wind** Luminosity Snow
1788615160 17.78° C 89% 1014.1 hPa - - - -
1788614588 17.78° C 89% 1013 hPa - - - -
1788613922 17.78° C 90% 1013 hPa - - - -
1788612433 18.33° C 89% 1013 hPa - - - -
1788611408 17.78° C 90% 1013.5 hPa - - - -
1788609146 16.67° C 92% 1013.5 hPa - - - -
1788608839 16.67° C 92% 1013.5 hPa - - - -
1788606936 16.67° C 92% 1013 hPa - - - -
1788606570 16.67° C 92% 1013 hPa - - - -
1788606126 16.67° C 92% 1013.1 hPa - - - -
1788605364 16.67° C 93% 1013.1 hPa - - - -
1788603173 16.67° C 94% 1012.8 hPa - - - -
1788602587 16.11° C 94% 1012.8 hPa - - - -
1788602229 16.11° C 94% 1012.8 hPa - - - -
1788596474 16.11° C 95% 1012 hPa - - - -
1788595258 16.11° C 96% 1012 hPa - - - -
1788594652 16.67° C 96% 1012 hPa - - - -
1788593285 16.11° C 96% 1011.8 hPa - - - -
1788592508 15.56° C 95% 1011.8 hPa - - - -
1788588880 16.11° C 94% 1011.6 hPa - - - -
1788588338 16.11° C 94% 1011.6 hPa - - - -
1788588016 16.67° C 94% 1011 hPa - - - -
1788587294 16.67° C 94% 1011.5 hPa - - - -
1788581390 17.22° C 90% 1011.5 hPa - - - -
1788580985 18.33° C 90% 1011.5 hPa - - - -

* Rain since midnight (hover to see other rain measurements)
** Current wind speed in m/s (hover to see current wind gust speed)